FW6154 Weather Reports


time (UTC)temp
C
wind
direction
speed
KPH
gust
KPH
rain 1hr
cm
rain 24hr
cm
rain mn
cm
humidity
%
barometer
mb
20260508175538 8 248 0.0 0.0 0.00 0.30 0.13 58 1003.6
20260508175027 8 270 0.0 0.0 0.00 0.30 0.13 58 1003.7
20260508174007 8 270 0.0 0.0 0.00 0.30 0.13 60 1003.9
20260508173456 8 203 0.0 0.0 0.00 0.30 0.13 60 1003.8
20260508171418 7 248 0.0 0.0 0.00 0.30 0.13 61 1003.6
20260508170358 8 248 0.0 0.0 0.00 0.30 0.13 62 1003.8
20260508165846 8 225 0.0 0.0 0.00 0.30 0.13 63 1003.9
20260508164828 7 270 0.0 0.0 0.00 0.30 0.13 62 1003.8
20260508164322 7 293 0.0 0.0 0.00 0.30 0.13 63 1003.8
20260508163806 7 248 0.0 0.0 0.00 0.30 0.13 63 1003.9
20260508163255 7 293 0.0 0.0 0.00 0.30 0.13 63 1003.7
20260508162746 7 293 0.0 0.0 0.00 0.30 0.13 63 1003.8
20260508161724 7 270 0.0 0.0 0.00 0.30 0.13 65 1003.9
20260508161215 7 248 0.0 0.0 0.00 0.30 0.13 64 1004.2
20260508160705 7 270 0.0 0.0 0.00 0.30 0.13 65 1004.1
20260508160155 7 248 0.0 0.0 0.00 0.30 0.13 64 1004.6
20260508154624 6 270 0.0 0.0 0.00 0.30 0.13 65 1004.7
20260508154115 7 293 0.0 0.0 0.00 0.30 0.13 66 1004.6
20260508153605 6 203 0.0 0.0 0.00 0.30 0.13 66 1004.5
20260508153056 6 270 0.0 0.0 0.00 0.30 0.13 65 1004.5
20260508152545 6 248 0.0 0.0 0.00 0.30 0.13 67 1004.5
20260508152034 6 270 0.0 0.0 0.00 0.30 0.13 66 1004.4
20260508151523 6 315 0.0 0.0 0.00 0.30 0.13 67 1004.4
20260508151013 6 248 0.0 0.0 0.00 0.30 0.13 67 1004.3
20260508150509 6 270 0.0 0.0 0.00 0.30 0.13 67 1004.5
20260508145953 6 315 0.0 0.0 0.00 0.30 0.13 68 1004.6
20260508145444 6 225 0.0 0.0 0.00 0.30 0.13 69 1004.6
20260508144932 6 158 0.0 0.0 0.00 0.30 0.13 69 1004.6
20260508144423 6 248 0.0 0.0 0.00 0.30 0.13 70 1004.5
20260508143402 5 203 0.0 0.0 0.00 0.30 0.13 71 1004.8
20260508142853 5 158 0.0 0.0 0.00 0.30 0.13 72 1004.5
20260508141832 5 248 0.0 0.0 0.00 0.30 0.13 72 1004.6
20260508141325 5 270 0.0 0.0 0.00 0.30 0.13 73 1004.5
20260508140811 5 248 0.0 0.0 0.00 0.30 0.13 72 1004.5
20260508140302 5 270 0.0 0.0 0.00 0.30 0.13 73 1004.4
20260508135751 5 225 0.0 0.0 0.00 0.30 0.13 73 1004.5
20260508134732 5 248 0.0 0.0 0.00 0.30 0.13 74 1004.4
20260508133201 5 248 0.0 0.0 0.00 0.30 0.13 74 1004.4
20260508132651 5 270 0.0 0.0 0.00 0.30 0.13 73 1004.5
20260508132141 5 293 0.0 0.0 0.00 0.30 0.13 74 1004.3
20260508131632 5 293 0.0 0.0 0.00 0.30 0.13 73 1004.5
20260508131121 5 135 0.0 0.0 0.00 0.30 0.13 75 1004.6
20260508130100 5 135 0.0 0.0 0.00 0.30 0.13 75 1004.5
20260508125552 4 270 0.0 0.0 0.00 0.30 0.13 75 1004.7
20260508124531 5 203 0.0 0.0 0.00 0.30 0.13 76 1004.4
20260508123510 4 293 0.0 0.0 0.00 0.30 0.13 75 1004.3
20260508123000 5 270 0.0 0.0 0.00 0.30 0.13 76 1004.1
20260508122452 5 203 0.0 0.0 0.00 0.30 0.13 76 1004.0
20260508121939 5 270 0.0 0.0 0.00 0.30 0.13 76 1004.0
20260508121429 5 270 0.0 0.0 0.00 0.30 0.13 77 1004.0
20260508120919 5 225 0.0 0.0 0.00 0.30 0.13 77 1004.0
20260508120413 4 293 0.0 0.0 0.00 0.30 0.13 77 1004.0
20260508115903 4 225 0.0 0.0 0.00 0.30 0.13 77 1004.0
20260508115348 4 225 0.0 0.0 0.00 0.30 0.13 77 1004.0
20260508114841 4 225 0.0 0.0 0.00 0.30 0.13 78 1004.2
20260508114330 5 315 0.0 0.0 0.00 0.30 0.13 79 1004.0
20260508113819 5 248 0.0 0.0 0.00 0.30 0.13 79 1003.8
20260508113309 5 248 0.0 0.0 0.00 0.30 0.13 79 1004.0
20260508112758 5 203 0.0 0.0 0.00 0.30 0.13 79 1004.2
20260508112249 5 270 0.0 0.0 0.00 0.30 0.13 79 1004.0
20260508111228 5 248 0.0 0.0 0.00 0.30 0.13 80 1004.1
20260508110211 5 293 0.0 0.0 0.00 0.30 0.13 79 1003.9
20260508105657 5 158 0.0 0.0 0.00 0.30 0.13 80 1004.0
20260508105149 5 225 0.0 0.0 0.00 0.30 0.13 80 1003.8
20260508104637 5 225 0.0 0.0 0.00 0.30 0.13 80 1003.8
20260508103107 5 270 0.0 0.0 0.00 0.33 0.13 80 1003.7
20260508102558 5 158 0.0 0.0 0.00 0.33 0.13 80 1003.9
20260508102058 5 180 0.0 0.0 0.00 0.33 0.13 80 1003.8
20260508101026 5 248 0.0 0.0 0.00 0.33 0.13 80 1003.7
20260508100006 5 158 0.0 0.0 0.00 0.33 0.13 79 1003.6
20260508095456 5 203 0.0 0.0 0.00 0.33 0.13 80 1003.8
20260508094946 5 203 0.0 0.0 0.00 0.33 0.13 79 1003.7
20260508094433 5 293 0.0 0.0 0.00 0.33 0.13 79 1003.7
20260508093925 5 248 0.0 0.0 0.00 0.33 0.13 80 1003.6
20260508093418 5 113 0.0 0.0 0.00 0.33 0.13 80 1003.7
20260508092358 5 270 0.0 0.0 0.00 0.33 0.13 80 1003.6
20260508091847 5 270 0.0 0.0 0.00 0.33 0.13 80 1003.6
20260508091336 5 203 0.0 0.0 0.00 0.33 0.13 81 1003.4
20260508090825 5 248 0.0 0.0 0.00 0.33 0.13 81 1003.6
20260508090314 5 203 0.0 0.0 0.00 0.33 0.13 81 1003.5
20260508085806 5 248 0.0 0.0 0.00 0.33 0.13 83 1003.5
20260508085256 5 180 0.0 0.0 0.00 0.33 0.13 85 1003.5
20260508084746 5 248 0.0 0.0 0.00 0.33 0.13 88 1003.6
20260508084234 4 203 0.0 0.0 0.00 0.33 0.13 90 1003.4
20260508083724 4 225 0.0 0.0 0.00 0.33 0.13 92 1003.8
20260508083215 4 225 0.0 0.0 0.00 0.33 0.13 95 1003.9
20260508082704 3 225 0.0 0.0 0.00 0.33 0.13 96 1003.7
20260508082154 3 248 0.0 0.0 0.00 0.33 0.13 96 1003.9
20260508081645 3 225 0.0 0.0 0.00 0.33 0.13 96 1004.0
20260508081133 3 248 0.0 0.0 0.00 0.33 0.13 95 1003.9
20260508080623 3 135 0.0 0.0 0.00 0.33 0.13 95 1003.8
20260508075605 3 203 0.0 0.0 0.00 0.33 0.13 95 1003.9
20260508075058 3 225 0.0 0.0 0.00 0.33 0.13 95 1003.9
20260508074547 4 180 0.0 0.0 0.00 0.33 0.13 95 1003.8
20260508074033 4 270 0.0 0.0 0.00 0.33 0.13 95 1004.0
20260508073523 4 225 0.0 0.0 0.00 0.33 0.13 95 1004.0
20260508072502 4 225 0.0 0.0 0.00 0.33 0.13 95 1003.8
20260508071953 4 315 0.0 0.0 0.03 0.33 0.13 95 1003.9
20260508071445 4 180 0.0 0.0 0.03 0.33 0.13 95 1004.0
20260508070933 4 158 0.0 0.0 0.03 0.33 0.13 95 1004.0
20260508070423 4 203 0.0 0.0 0.03 0.33 0.13 95 1004.2
20260508065913 4 270 0.0 0.0 0.03 0.33 0.13 95 1004.1
20260508065403 4 225 0.0 0.0 0.03 0.33 0.13 95 1004.0
20260508064853 4 293 0.0 0.0 0.03 0.33 0.13 95 1004.4
20260508064342 4 203 0.0 0.0 0.03 0.33 0.13 95 1004.4
20260508063324 5 225 0.0 0.0 0.03 0.33 0.13 95 1004.1
20260508062813 5 113 0.0 0.0 0.03 0.33 0.13 95 1004.3
20260508062305 5 158 0.0 0.0 0.00 0.30 0.10 95 1004.1
20260508061756 5 225 0.0 0.0 0.00 0.30 0.10 95 1004.2
20260508061247 5 270 0.0 0.0 0.00 0.30 0.10 95 1004.2
20260508060732 5 248 0.0 0.0 0.00 0.30 0.10 95 1004.5
20260508060222 5 248 0.0 0.0 0.00 0.30 0.10 95 1004.7
20260508055711 5 248 0.0 0.0 0.00 0.30 0.10 95 1004.7
20260508055201 5 270 0.0 0.0 0.00 0.30 0.10 95 1004.8
20260508054651 5 248 0.0 0.0 0.03 0.30 0.10 95 1004.7
20260508054141 5 158 0.0 0.0 0.03 0.30 0.10 95 1004.6
20260508053631 5 315 0.0 0.0 0.03 0.30 0.10 95 1004.4
20260508053120 5 270 0.0 0.0 0.03 0.30 0.10 94 1004.6
20260508052610 5 135 0.0 0.0 0.03 0.30 0.10 94 1004.7
20260508052100 5 248 0.0 0.0 0.03 0.30 0.10 94 1004.7
20260508051042 5 270 0.0 0.0 0.03 0.36 0.10 94 1004.5
20260508050533 5 135 0.0 0.0 0.03 0.36 0.10 94 1004.8
20260508050020 5 248 0.0 0.0 0.03 0.36 0.10 94 1004.5
20260508045510 5 248 0.0 0.0 0.05 0.36 0.10 94 1004.9
20260508045002 5 225 0.0 0.0 0.03 0.33 0.05 94 1004.6
20260508043939 5 248 0.0 0.0 0.03 0.33 0.05 93 1004.6
20260508042919 5 270 0.0 0.0 0.05 0.33 0.05 92 1004.6
20260508042410 5 270 0.0 0.0 0.05 0.33 0.05 92 1004.6
20260508041349 6 158 0.0 0.0 0.05 0.36 0.05 92 1004.6
20260508040843 6 158 0.0 0.0 0.05 0.36 0.05 92 1004.7
20260508040330 6 270 0.0 0.0 0.05 0.36 0.05 92 1004.6
20260508035820 6 270 0.0 0.0 0.05 0.36 0.05 92 1004.6
20260508034759 6 180 0.0 0.0 0.03 0.33 0.03 92 1004.4
20260508034253 6 45 0.0 0.0 0.03 0.33 0.03 91 1004.4
20260508033737 6 270 0.0 0.0 0.03 0.33 0.03 91 1004.4
20260508033230 6 270 0.0 0.0 0.00 0.30 0.00 91 1004.6
20260508031700 6 203 0.0 0.0 0.00 0.30 0.00 91 1004.3
20260508031156 6 225 0.0 0.0 0.00 0.30 0.00 91 1004.5
20260508030135 6 293 0.0 0.0 0.00 0.30 0.00 90 1004.5
20260508025619 6 203 0.0 0.0 0.00 0.30 0.30 90 1004.6
20260508025111 6 158 0.0 3.2 0.00 0.30 0.30 90 1004.6
20260508024556 6 135 0.0 3.2 0.00 0.30 0.30 89 1004.5
20260508024046 6 293 0.0 0.0 0.00 0.30 0.30 89 1004.5
20260508023540 6 270 0.0 0.0 0.03 0.30 0.30 89 1004.5
20260508022520 6 248 0.0 0.0 0.03 0.30 0.30 89 1004.7
20260508022010 6 203 0.0 0.0 0.03 0.30 0.30 88 1004.8
20260508021500 6 270 0.0 0.0 0.03 0.30 0.30 88 1004.8
20260508020950 6 203 0.0 0.0 0.03 0.30 0.30 89 1005.2
20260508020448 6 225 0.0 0.0 0.03 0.30 0.30 89 1004.8
20260508015932 6 248 0.0 0.0 0.03 0.30 0.30 89 1004.9
20260508014930 6 248 0.0 0.0 0.03 0.30 0.30 90 1004.8
20260508013902 6 315 0.0 0.0 0.03 0.28 0.28 90 1005.0
20260508013335 6 225 0.0 0.0 0.03 0.28 0.28 89 1005.0
20260508012827 6 270 0.0 0.0 0.03 0.28 0.28 88 1005.3
20260508012327 6 248 0.0 3.2 0.03 0.28 0.28 89 1005.4
20260508011843 6 293 0.0 3.2 0.03 0.28 0.28 90 1005.3
20260508011255 6 270 0.0 0.0 0.03 0.28 0.28 90 1005.2
20260508010745 6 293 0.0 0.0 0.03 0.28 0.28 90 1005.5
20260508010239 6 248 0.0 0.0 0.03 0.28 0.28 90 1005.4
20260508005729 6 0 0.0 3.2 0.03 0.28 0.28 89 1005.6
20260508005217 6 180 0.0 3.2 0.05 0.28 0.28 89 1005.6
20260508004704 6 225 0.0 3.2 0.03 0.23 0.23 89 1005.5
20260508003645 5 270 0.0 0.0 0.03 0.23 0.23 90 1005.8
20260508003146 6 293 0.0 0.0 0.03 0.23 0.23 90 1005.8
20260508002626 5 225 0.0 0.0 0.03 0.23 0.23 90 1005.7
20260508002118 5 225 0.0 0.0 0.03 0.23 0.23 90 1005.8
20260508001604 5 248 0.0 0.0 0.05 0.23 0.23 90 1005.8
20260508000544 5 293 0.0 3.2 0.05 0.23 0.23 89 1006.0
20260508000038 5 248 0.0 3.2 0.05 0.23 0.23 89 1005.7
20260507235025 5 158 0.0 3.2 0.03 0.20 0.20 89 1005.6
20260507233445 5 248 0.0 3.2 0.03 0.23 0.20 89 1005.6
20260507232953 5 270 0.0 3.2 0.03 0.23 0.20 89 1005.8
20260507231944 5 270 0.0 3.2 0.03 0.30 0.20 90 1005.6
20260507231408 5 225 0.0 3.2 0.00 0.30 0.18 90 1005.7
20260507230856 5 158 0.0 0.0 0.00 0.30 0.18 90 1005.7
20260507230345 5 203 0.0 3.2 0.03 0.33 0.18 90 1005.7
20260507225832 5 248 0.0 3.2 0.03 0.33 0.18 90 1005.7
20260507225322 6 293 0.0 0.0 0.03 0.33 0.18 91 1005.9
20260507224814 6 248 0.0 3.2 0.03 0.36 0.18 91 1005.8
20260507224305 6 0 0.0 3.2 0.05 0.38 0.18 91 1005.9
20260507223752 6 270 0.0 0.0 0.05 0.46 0.18 91 1005.8
20260507223245 6 270 0.0 9.7 0.05 0.48 0.18 91 1005.8
20260507222736 6 90 1.6 9.7 0.05 0.51 0.18 91 1005.7
20260507222223 6 270 0.0 6.4 0.05 0.53 0.18 92 1006.0
20260507221713 6 203 0.0 0.0 0.05 0.61 0.18 92 1006.0
20260507221205 6 270 0.0 0.0 0.05 0.64 0.18 92 1005.7
20260507220659 6 225 0.0 3.2 0.03 0.64 0.15 91 1005.8
20260507220141 7 270 0.0 3.2 0.03 0.64 0.15 91 1005.5
20260507215630 7 270 0.0 0.0 0.03 0.64 0.15 91 1005.4
20260507215122 7 203 0.0 3.2 0.03 0.64 0.15 91 1005.2
20260507214627 7 248 0.0 3.2 0.00 0.61 0.13 91 1005.2
20260507214109 7 180 0.0 0.0 0.00 0.61 0.13 91 1005.0
20260507213645 7 248 0.0 0.0 0.00 0.61 0.13 91 1004.9
20260507213041 7 158 0.0 0.0 0.00 0.61 0.13 91 1004.6
20260507212531 7 203 0.0 0.0 0.00 0.61 0.13 91 1004.3
20260507212021 7 270 0.0 6.4 0.00 0.64 0.13 91 1004.6
20260507211514 7 203 0.0 6.4 0.00 0.64 0.13 91 1004.3
20260507210959 8 338 0.0 0.0 0.00 0.64 0.13 91 1004.0
20260507210450 8 203 0.0 0.0 0.00 0.66 0.13 91 1004.0
20260507205942 8 293 0.0 3.2 0.00 0.66 0.13 91 1004.0
20260507205438 8 203 0.0 3.2 0.00 0.69 0.13 91 1004.1
20260507204919 8 248 0.0 0.0 0.00 0.69 0.13 91 1004.1
20260507203900 8 270 0.0 0.0 0.00 0.69 0.13 91 1004.0
20260507203349 8 293 0.0 0.0 0.00 0.71 0.13 91 1004.3
20260507202838 8 225 0.0 0.0 0.00 0.71 0.13 91 1004.4
20260507202328 8 248 0.0 0.0 0.00 0.71 0.13 91 1004.3
20260507201820 8 270 0.0 0.0 0.00 0.71 0.13 91 1004.3
20260507201309 8 248 0.0 0.0 0.00 0.71 0.13 91 1004.4
20260507200758 8 180 0.0 0.0 0.00 0.71 0.13 91 1004.4
20260507200249 8 248 0.0 0.0 0.00 0.71 0.13 91 1004.4
20260507195738 8 90 0.0 0.0 0.00 0.76 0.13 91 1004.4
20260507195228 8 270 0.0 0.0 0.00 0.76 0.13 91 1004.3
20260507194716 8 248 0.0 0.0 0.00 0.76 0.13 91 1004.3
20260507194208 8 203 0.0 0.0 0.00 0.76 0.13 91 1004.4
20260507193701 8 315 0.0 0.0 0.00 0.76 0.13 91 1004.4
20260507193149 8 293 0.0 0.0 0.00 0.76 0.13 91 1004.5
20260507192127 9 270 0.0 0.0 0.00 0.76 0.13 91 1004.5
20260507191617 8 180 0.0 0.0 0.00 0.76 0.13 91 1004.6
20260507190601 8 180 0.0 0.0 0.00 0.76 0.13 91 1004.2
20260507190050 8 135 0.0 0.0 0.00 0.76 0.13 91 1004.3
20260507185542 8 248 0.0 0.0 0.00 0.76 0.13 91 1004.5
20260507185027 9 270 0.0 0.0 0.00 0.76 0.13 91 1004.5
20260507184526 9 248 0.0 0.0 0.00 0.76 0.13 91 1004.3
20260507184007 9 248 0.0 0.0 0.00 0.76 0.13 91 1004.3
20260507183457 9 270 0.0 0.0 0.00 0.76 0.13 91 1004.2
20260507182946 9 248 0.0 0.0 0.00 0.76 0.13 91 1004.3
20260507182449 10 158 0.0 0.0 0.00 0.76 0.13 91 1004.0
20260507181930 9 203 0.0 0.0 0.00 0.76 0.13 91 1003.9
20260507180905 10 225 0.0 0.0 0.00 0.76 0.13 91 1004.0
20260507180355 10 203 0.0 0.0 0.00 0.76 0.13 91 1003.9
20260507175845 10 225 0.0 0.0 0.00 0.76 0.13 91 1003.8